Location: Newark
(47.7394°N, 8.0008°E)
Time: 16:24:47
(UTC+00:00)

Envisat - Visible Passes

Search period start: 10 December 2019 00:00
Search period end: 20 December 2019 00:00
Orbit: 764 x 766 km, 98.1° (Epoch: 10 December)

Date Brightness Start Highest point End Pass type
(mag) Time Alt. Az. Time Alt. Az. Time Alt. Az.
10 Dec 6.4 04:44:38 10° ENE 04:45:35 10° E 04:46:32 10° E visible
10 Dec 3.3 06:20:22 10° NNE 06:25:28 77° ESE 06:30:33 10° S visible
10 Dec 3.5 17:38:19 10° S 17:43:20 60° W 17:48:24 10° NNW visible
11 Dec 4.7 05:43:51 10° NNE 05:48:34 37° E 05:53:14 10° SSE visible
11 Dec 2.9 17:01:32 10° SSE 17:06:33 67° ENE 17:11:37 10° N visible
11 Dec 5.7 18:42:42 10° SW 18:46:05 18° W 18:49:29 10° NW visible
12 Dec 5.9 05:07:58 10° NE 05:11:27 18° E 05:14:54 10° SE visible
12 Dec 3.6 16:25:27 10° SE 16:29:58 34° ENE 16:34:31 10° N visible
12 Dec 4.5 18:04:18 10° SSW 18:08:57 36° W 18:13:38 10° NNW visible
13 Dec 3.6 06:09:07 10° NNE 06:14:10 62° E 06:19:12 10° S visible
13 Dec 3.2 17:26:58 10° S 17:32:02 75° WSW 17:37:09 10° NNW visible
13 Dec 6.3 19:11:28 10° W 19:11:57 10° W 19:12:26 10° WNW visible
14 Dec 5.1 05:32:44 10° NNE 05:37:12 30° E 05:41:38 10° SSE visible
14 Dec 3.1 16:50:23 10° SSE 16:55:19 55° ENE 17:00:17 10° N visible
14 Dec 5.4 18:30:47 10° SW 18:34:40 22° W 18:38:35 10° NW visible
15 Dec 6.0 04:57:13 10° NE 05:00:02 15° E 05:02:49 10° ESE visible
15 Dec 3.8 16:14:31 10° ESE 16:18:46 28° ENE 16:23:04 10° N visible
15 Dec 4.1 17:52:46 10° S 17:57:37 44° W 18:02:29 10° NNW visible
16 Dec 4.1 05:57:54 10° NNE 06:02:51 50° E 06:07:46 10° S visible
16 Dec 2.9 17:15:40 10° SSE 17:20:45 89° ENE 17:25:53 10° NNW visible
16 Dec 6.0 18:58:10 10° WSW 19:00:29 13° W 19:02:49 10° WNW visible
17 Dec 5.4 05:21:42 10° NE 05:25:49 24° E 05:29:56 10° SSE visible
17 Dec 3.3 16:39:17 10° SE 16:44:05 44° ENE 16:48:54 10° N visible
17 Dec 5.1 18:19:00 10° SSW 18:23:17 27° W 18:27:35 10° NW visible
18 Dec 6.2 04:46:52 10° ENE 04:48:35 12° E 04:50:18 10° ESE visible
18 Dec 3.2 06:23:17 10° NNE 06:28:24 83° ESE 06:33:30 10° SSW visible
18 Dec 3.7 17:41:19 10° S 17:46:16 55° W 17:51:18 10° NNW visible
19 Dec 4.5 05:46:43 10° NNE 05:51:31 40° E 05:56:16 10° SSE visible
19 Dec 2.9 17:04:25 10° SSE 17:09:28 73° ENE 17:14:34 10° N visible
19 Dec 5.8 18:45:55 10° SW 18:49:03 16° W 18:52:13 10° NW visible
